Location: *
(49.6619°S, 177.4603°W)
Time: 04:44:12
(UTC+00:00)

USA 215 - Pass Details

Date: 31 January 2023
Orbit: 1102 x 1105 km, 123.0° (Epoch: 27 March)

Event Time Altitude Azimuth Distance (km) Brightness Sun altitude
Rises 10:57:31 0° 123° (ESE) 3,956 6.4 -21.4°
Reaches altitude 10° 11:00:01 10° 123° (ESE) 2,994 5.7 -21.5°
Maximum altitude 11:06:40 89° 35° (NE) 1,122 3.2 -21.8°
Drops below altitude 10° 11:13:17 10° 301° (WNW) 2,975 5.3 -22.0°
Sets 11:15:45 0° 301° (WNW) 3,928 6.0 -22.1°
